Location: El Mouella
(16.4949°N, 9.1594°W)
Time: 22:45:06
(UTC+00:00)

STARLINK-60 - Pass Details

Date: 07 October 2020
Orbit: 345 x 354 km, 53.0° (Epoch: 29 October)

Event Time Altitude Azimuth Distance (km) Brightness Sun altitude
Exits shadow 05:27:34 25° 220° (SW) 766 4.0 -15.2°
Drops below altitude 10° 05:29:42 10° 176° (S) 1,335 5.7 -14.7°
Sets 05:31:55 0° 163° (SSE) 2,186 6.9 -14.2°
